Location: Newark
(47.8285°N, 0.6972°W)
Time: 18:41:36
(UTC+00:00)

ISS - Visible Passes

Search period start: 22 October 2019 00:00
Search period end: 01 November 2019 00:00
Orbit: 411 x 421 km, 51.6° (Epoch: 22 October)

Date Brightness Start Highest point End Pass type
(mag) Time Alt. Az. Time Alt. Az. Time Alt. Az.
23 Oct -0.5 05:37:25 10° SSE 05:38:38 11° SE 05:39:50 10° ESE visible
25 Oct -1.6 05:34:57 10° SSW 05:37:48 26° SE 05:40:40 10° E visible
26 Oct -1.1 04:47:07 10° S 04:49:22 17° SE 04:51:38 10° E visible
27 Oct -0.7 04:00:47 11° SE 04:00:59 11° SE 04:01:46 10° ESE visible
27 Oct -3.2 05:33:48 10° SW 05:37:07 57° SSE 05:40:26 10° ENE visible
28 Oct -2.5 04:47:33 29° S 04:48:34 37° SE 04:51:43 10° ENE visible
29 Oct -1.2 04:01:15 20° ESE 04:01:15 20° ESE 04:02:51 10° E visible
29 Oct -3.8 05:34:10 18° WSW 05:36:32 75° NNW 05:39:54 10° ENE visible
30 Oct -3.8 04:47:45 76° S 04:47:52 79° SSE 04:51:15 10° ENE visible
31 Oct -1.2 04:01:14 21° E 04:01:14 21° E 04:02:33 10° ENE visible
31 Oct -3.3 05:34:08 22° W 05:36:02 49° NNW 05:39:20 10° ENE visible
